TimeMST,TemperatureF,Dew PointF,Humidity,Sea Level PressureIn,VisibilityMPH,Wind Direction,Wind SpeedMPH,Gust SpeedMPH,PrecipitationIn,Events,Conditions,WindDirDegrees,DateUTC
12:53 AM,9.0,3.0,77,30.53,10.0,NE,8.1,-,N/A,,Clear,50,2013-01-22 07:53:00
1:53 AM,9.0,3.0,77,30.51,10.0,NE,6.9,-,N/A,,Clear,50,2013-01-22 08:53:00
2:53 AM,9.0,3.0,77,30.51,10.0,East,9.2,-,N/A,,Clear,80,2013-01-22 09:53:00
3:53 AM,8.1,1.9,76,30.49,10.0,NE,11.5,-,N/A,,Clear,40,2013-01-22 10:53:00
4:53 AM,9.0,1.9,73,30.48,10.0,NE,13.8,-,N/A,,Clear,50,2013-01-22 11:53:00
5:53 AM,9.0,1.9,73,30.48,10.0,NE,17.3,-,N/A,,Clear,50,2013-01-22 12:53:00
6:53 AM,9.0,1.9,73,30.48,10.0,NE,20.7,-,N/A,,Clear,50,2013-01-22 13:53:00
7:53 AM,9.0,1.9,73,30.47,10.0,NE,18.4,-,N/A,,Clear,50,2013-01-22 14:53:00
8:53 AM,9.0,1.9,73,30.48,10.0,NE,20.7,-,N/A,,Clear,40,2013-01-22 15:53:00
9:53 AM,12.9,5.0,71,30.49,10.0,NE,20.7,27.6,N/A,,Clear,50,2013-01-22 16:53:00
10:53 AM,17.1,8.1,68,30.51,10.0,NE,20.7,-,N/A,,Clear,50,2013-01-22 17:53:00
11:53 AM,19.9,10.9,68,30.50,10.0,ENE,17.3,-,N/A,,Clear,60,2013-01-22 18:53:00
12:53 PM,23.0,12.9,65,30.47,10.0,NE,18.4,26.5,N/A,,Clear,50,2013-01-22 19:53:00
1:53 PM,25.0,15.1,66,30.45,10.0,ENE,15.0,24.2,N/A,,Clear,60,2013-01-22 20:53:00
2:53 PM,26.1,16.0,66,30.43,10.0,ENE,16.1,-,N/A,,Clear,60,2013-01-22 21:53:00
3:53 PM,26.1,16.0,66,30.44,10.0,ENE,9.2,-,N/A,,Clear,70,2013-01-22 22:53:00
4:53 PM,23.0,15.1,72,30.43,10.0,ENE,6.9,-,N/A,,Clear,60,2013-01-22 23:53:00
5:53 PM,21.9,15.1,75,30.42,10.0,NE,18.4,-,N/A,,Clear,50,2013-01-23 00:53:00
6:53 PM,21.0,12.9,71,30.41,10.0,ENE,19.6,-,N/A,,Clear,60,2013-01-23 01:53:00
7:53 PM,19.0,10.0,68,30.43,10.0,ENE,19.6,-,N/A,,Clear,60,2013-01-23 02:53:00
8:53 PM,19.0,10.0,68,30.42,10.0,ENE,11.5,19.6,N/A,,Clear,60,2013-01-23 03:53:00
9:53 PM,19.9,9.0,62,30.39,10.0,NE,23.0,-,N/A,,Clear,50,2013-01-23 04:53:00
10:53 PM,18.0,9.0,68,30.38,10.0,NE,24.2,29.9,N/A,,Clear,40,2013-01-23 05:53:00
11:53 PM,19.9,10.0,65,30.35,10.0,NE,24.2,-,N/A,,Clear,50,2013-01-23 06:53:00